FW7501 Weather Reports


time (UTC)temp
C
wind
direction
speed
KPH
gust
KPH
rain 1hr
cm
rain 24hr
cm
rain mn
cm
humidity
%
barometer
mb
20221207151040 6 233 9.7 19.3 0.00 0.10 0.00 85 1009.8
20221207150052 6 233 9.7 17.7 0.00 0.10 0.00 86 1009.8
20221207144103 6 208 6.4 14.5 0.00 0.10 0.00 86 1010.0
20221207143108 6 208 6.4 14.5 0.00 0.10 0.00 85 1010.0
20221207142038 6 209 9.7 19.3 0.00 0.10 0.00 85 1010.0
20221207141043 6 202 8.0 16.1 0.00 0.10 0.00 84 1010.1
20221207140057 6 205 8.0 14.5 0.00 0.10 0.00 84 1010.0
20221207135032 6 193 6.4 14.5 0.00 0.10 0.00 83 1010.0
20221207134030 7 202 8.0 16.1 0.00 0.10 0.00 82 1010.0
20221207133034 7 185 11.3 20.9 0.00 0.10 0.00 82 1010.1
20221207132040 7 235 11.3 20.9 0.00 0.10 0.00 81 1010.1
20221207131042 7 175 11.3 24.1 0.00 0.10 0.00 81 1010.0
20221207130114 7 191 16.1 29.0 0.00 0.10 0.00 80 1010.1
20221207125029 8 214 16.1 24.1 0.00 0.10 0.03 79 1010.0
20221207124102 8 210 19.3 27.4 0.00 0.10 0.03 79 1010.0
20221207123042 8 228 16.1 27.4 0.00 0.10 0.03 80 1010.0
20221207122041 8 220 22.5 35.4 0.00 0.10 0.03 78 1009.9
20221207121033 8 193 16.1 27.4 0.00 0.10 0.03 78 1009.7
20221207120057 8 195 20.9 29.0 0.00 0.10 0.03 78 1009.5
20221207115049 8 228 16.1 27.4 0.00 0.10 0.03 81 1009.4
20221207114045 9 215 19.3 32.2 0.00 0.10 0.03 82 1009.2
20221207113056 9 228 19.3 37.0 0.00 0.10 0.03 82 1009.0
20221207112029 9 221 20.9 29.0 0.00 0.10 0.03 85 1008.7
20221207111036 9 234 17.7 30.6 0.00 0.10 0.03 85 1008.7
20221207110053 10 236 22.5 38.6 0.00 0.10 0.03 85 1008.6
20221207105042 10 218 19.3 30.6 0.10 0.10 0.03 86 1008.5
20221207104029 10 208 16.1 29.0 0.10 0.10 0.03 88 1008.2
20221207103028 10 215 16.1 29.0 0.10 0.10 0.03 88 1008.1
20221207102101 10 249 14.5 30.6 0.10 0.10 0.03 88 1007.9
20221207101040 10 214 12.9 29.0 0.10 0.10 0.03 89 1007.8
20221207100058 10 233 22.5 37.0 0.10 0.10 0.03 89 1007.7
20221207095044 10 238 22.5 41.8 0.00 0.00 0.00 90 1007.5
20221207094049 10 219 16.1 29.0 0.00 0.00 0.00 90 1007.3
20221207093039 10 237 20.9 33.8 0.00 0.00 0.00 90 1007.1
20221207092043 10 216 20.9 33.8 0.00 0.00 0.00 88 1006.8
20221207090034 12 241 20.9 37.0 0.00 0.00 0.00 77 1006.0
20221207085045 13 218 29.0 45.1 0.00 0.00 0.00 73 1005.7
20221207084027 13 218 24.1 41.8 0.00 0.00 0.00 70 1005.3
20221207083027 15 241 22.5 35.4 0.00 0.00 0.00 63 1004.9
20221207081033 15 199 11.3 19.3 0.00 0.00 0.00 69 1004.4
20221207080044 15 195 12.9 29.0 0.00 0.00 0.00 69 1004.4
20221207075047 14 197 16.1 25.7 0.00 0.00 0.00 72 1004.2
20221207074029 15 185 14.5 25.7 0.00 0.00 0.00 69 1004.1
20221207073036 16 198 14.5 24.1 0.00 0.00 0.00 69 1003.9
20221207072040 16 202 16.1 29.0 0.00 0.00 0.00 70 1003.8
20221207071032 16 206 20.9 33.8 0.00 0.00 0.00 70 1003.7
20221207070049 16 170 20.9 30.6 0.00 0.00 0.00 71 1003.7
20221207065032 15 194 14.5 25.7 0.00 0.00 0.00 73 1003.8
20221207064029 16 166 16.1 24.1 0.00 0.00 0.00 73 1003.7
20221207063042 16 185 19.3 27.4 0.00 0.00 0.00 72 1003.7
20221207062040 16 165 19.3 27.4 0.00 0.00 0.00 73 1003.8
20221207061050 16 185 19.3 33.8 0.00 0.00 0.00 75 1003.7
20221207060040 16 199 19.3 25.7 0.00 0.00 0.00 76 1003.7
20221207055047 16 197 20.9 29.0 0.00 0.00 0.00 76 1003.7
20221207054026 16 170 22.5 32.2 0.00 0.00 0.00 75 1003.6
20221207053052 15 193 22.5 32.2 0.00 0.00 0.00 79 1003.5
20221207052034 16 158 19.3 29.0 0.00 0.00 0.00 76 1003.4
20221207051044 17 200 17.7 25.7 0.00 0.00 0.00 76 1003.3
20221207050035 16 189 19.3 25.7 0.00 0.00 0.00 76 1003.3
20221207045048 16 185 16.1 24.1 0.00 0.00 0.00 75 1003.3
20221207044051 17 192 14.5 20.9 0.00 0.00 0.00 73 1003.3
20221207043034 17 189 9.7 17.7 0.00 0.00 0.00 73 1003.1
20221207042044 16 208 16.1 19.3 0.00 0.00 0.00 73 1003.4
20221207041033 17 209 8.0 22.5 0.00 0.00 0.00 74 1003.5
20221207040047 17 206 6.4 17.7 0.00 0.00 0.00 75 1003.3
20221207035047 17 196 12.9 22.5 0.00 0.00 0.00 75 1003.3
20221207034031 17 207 9.7 24.1 0.00 0.00 0.00 76 1003.4
20221207033039 17 175 16.1 22.5 0.00 0.00 0.00 75 1003.4
20221207032043 17 195 17.7 25.7 0.00 0.00 0.00 75 1003.5
20221207031035 17 211 16.1 24.1 0.00 0.00 0.00 75 1003.5
20221207030049 17 180 14.5 24.1 0.00 0.00 0.00 74 1003.5
20221207025050 17 160 17.7 27.4 0.00 0.00 0.00 76 1003.5
20221207024051 17 189 16.1 25.7 0.00 0.00 0.00 77 1003.5
20221207023037 17 198 16.1 25.7 0.00 0.00 0.00 75 1003.4
20221207022050 17 180 12.9 20.9 0.00 0.00 0.00 76 1003.5
20221207021037 18 151 6.4 12.9 0.00 0.00 0.00 74 1003.4
20221207020043 18 227 11.3 19.3 0.00 0.00 0.00 72 1003.5
20221207015046 18 206 12.9 22.5 0.00 0.00 0.00 72 1003.5
20221207014029 18 163 9.7 20.9 0.00 0.00 0.00 74 1003.5
20221207013033 18 180 19.3 25.7 0.00 0.00 0.00 72 1003.7
20221207012058 19 193 14.5 22.5 0.00 0.00 0.00 72 1003.5
20221207011038 18 206 9.7 20.9 0.00 0.00 0.00 72 1003.6
20221207010105 18 191 14.5 20.9 0.00 0.00 0.00 74 1003.6
20221207005049 19 231 14.5 20.9 0.00 0.00 0.00 72 1003.6